Track STARLINK-3967 now! 10-day predictions STARLINK-3967 is classified as:
1 52636U 22052AQ 22180.58334491 .00060806 00000-0 43473-3 0 9997 2 52636 53.2133 213.1957 0002801 14.5824 204.3953 15.73186571 1308